SITRO-AIS 31

Last updated on Thu Nov 21 2024 00:03:40 GMT+0000 (Coordinated Universal Time)

1 59054U 24039D 24325.56206128 .00068204 00000+0 14980-2 0 9990 2 59054 97.4078 287.9115 0015124 36.2280 323.9989 15.43668542 40581
UTC large
Height (km)
Speed (km/s)
/
Latitude / Longitude
Inclination (degrees)
Orbital Period (minutes)
Azimuth
Elevation
Range (km)
Doppler Factor

Next 0 passes for location: London (51.5072 / 0.1276)

Sorry there are no passes over London.